Theta_e
302 301 301 301 302 302 305 307 308 309 308 306 303 303 303 305 306 307 308 308 307 307 306 311 311 312 314 315 311 310 314 314 313 313 314 314 318 316 318 321 323 326 331 342 342
302 302 302 302 302 303 306 308 309 310 309 309 305 303 304 306 307 311 310 311 310 305 304 311 312 312 313 315 314 313 314 313 313 314 315 315 316 317 318 321 321 327 342 341 341
302 303 303 303 303 306 309 311 311 311 311 311 310 307 306 307 309 312 312 311 310 311 308 307 308 312 312 313 315 312 314 312 313 313 314 315 316 315 318 323 324 343 346 350 346
304 303 304 308 310 311 312 312 311 311 311 311 310 308 308 308 311 313 313 311 312 314 313 310 310 311 313 313 313 316 313 311 313 312 313 315 314 316 316 319 321 322 341 351 348
304 306 311 311 312 312 312 312 311 311 311 310 310 308 308 309 309 309 312 312 313 314 313 312 311 310 311 313 312 315 315 314 314 314 314 313 315 315 315 316 316 316 327 349 351
305 310 311 312 312 313 313 312 312 311 311 310 310 308 308 310 309 308 308 312 314 314 314 311 310 310 310 311 313 312 314 315 315 314 315 315 315 314 316 315 316 317 318 331 347
309 309 311 312 313 313 313 313 312 311 311 311 310 309 308 309 308 310 310 309 309 314 313 312 311 310 310 311 313 314 314 314 315 315 315 315 315 315 315 315 315 316 317 337 345
309 311 312 313 313 314 314 313 312 311 311 310 309 309 309 308 309 310 310 309 308 310 312 312 309 310 311 313 312 313 314 314 314 315 315 315 316 316 315 314 315 315 317 332 347
311 312 313 313 313 314 314 314 312 311 310 310 308 308 309 309 310 310 310 309 308 308 309 309 308 310 313 312 312 314 313 313 312 315 316 316 316 316 315 314 315 316 317 323 345
310 312 313 313 313 313 314 313 312 311 310 310 309 308 309 310 310 310 310 307 308 308 308 308 311 312 312 312 310 313 314 316 315 314 317 318 316 316 315 315 316 317 317 320 338
310 311 312 313 313 313 314 314 313 311 310 310 310 309 310 309 309 310 310 308 308 308 310 308 311 313 313 312 312 313 314 315 316 317 317 318 319 316 316 316 316 318 317 330 339
310 311 312 313 313 314 313 314 312 311 310 310 310 309 310 311 310 309 310 309 308 310 308 309 311 310 311 312 312 312 313 313 314 315 318 318 319 318 318 317 316 317 327 337 345
307 312 312 313 313 314 313 313 313 311 310 310 310 310 311 312 311 311 310 310 309 309 309 309 308 307 310 310 311 312 312 312 313 315 316 319 320 318 318 318 316 322 332 342 345
306 312 312 313 313 314 313 313 312 309 313 314 313 312 312 312 312 311 311 310 309 310 309 310 309 309 309 309 309 310 311 312 313 315 318 320 318 319 319 318 318 320 343 345 346
308 311 312 313 313 314 313 312 311 309 317 314 314 313 314 313 313 313 311 310 311 310 310 310 310 310 310 310 310 309 311 312 312 315 318 320 321 319 319 319 318 322 342 345 346
309 311 311 312 312 313 314 312 310 315 318 315 314 315 315 312 312 312 313 311 310 310 311 310 309 310 310 310 310 310 310 312 315 316 319 317 320 318 318 319 319 325 338 345 347
310 311 310 312 312 312 313 311 316 317 314 316 315 315 315 313 313 313 312 312 313 313 312 311 311 310 310 310 310 310 314 314 315 319 316 317 321 320 319 320 319 327 337 344 346
309 310 310 311 312 311 312 314 317 314 315 314 316 315 314 314 314 313 311 312 311 312 312 313 312 311 311 311 310 310 315 315 314 315 314 319 321 321 320 318 318 326 336 344 344
307 311 310 309 311 311 312 316 315 316 314 314 315 315 314 314 314 314 311 312 312 310 313 314 312 310 310 310 310 310 313 314 317 319 316 317 319 319 318 318 320 330 341 344 342
307 314 311 308 309 310 313 313 314 314 313 314 317 314 316 315 315 315 314 312 313 311 310 311 312 312 312 310 311 312 311 314 316 319 315 316 319 320 319 319 322 334 342 341 340
308 312 309 305 309 309 314 312 311 310 311 315 316 316 314 314 315 315 314 313 312 312 311 310 312 312 312 312 312 313 313 313 315 320 317 317 319 320 320 320 325 338 343 342 339
308 308 307 305 308 305 311 308 308 311 311 312 314 314 311 312 313 316 315 315 312 311 312 311 312 313 313 313 312 312 313 314 314 319 320 318 319 322 321 321 327 336 344 342 341
306 305 306 305 309 308 307 307 308 310 310 312 314 314 313 313 312 313 315 313 313 311 312 311 313 315 317 314 315 315 314 314 316 316 321 321 321 319 319 321 330 340 342 342 340
306 309 307 305 305 307 307 308 309 308 309 310 311 313 314 312 312 312 312 313 313 312 313 313 314 315 318 317 316 316 315 315 316 315 320 321 326 326 322 325 336 341 337 336 336
306 306 305 309 308 307 305 306 308 308 308 308 312 313 312 312 313 313 310 311 310 313 314 315 317 316 316 316 318 317 316 315 316 313 318 322 322 327 327 330 337 339 336 332 331
305 305 305 306 306 306 305 307 307 307 307 310 311 311 310 311 312 313 312 309 312 314 316 314 318 317 317 318 317 317 316 315 314 313 314 317 320 325 330 332 335 333 331 329 328
304 303 304 305 306 307 307 307 307 306 307 307 308 309 311 313 310 311 310 312 313 314 316 314 316 318 322 318 318 318 316 315 315 315 317 320 321 328 331 334 332 331 329 328 327
Wind_Speed
24 23 22 21 20 19 17 18 21 21 19 18 16 15 15 16 15 17 20 7 7 8 9 6 5 4 11 5 6 7 7 13 14 14 9 8 12 11 9 23 15 11 11 4 8
27 25 23 21 20 18 17 20 20 18 18 17 17 14 14 14 18 5 2 3 1 5 6 7 4 5 7 6 6 8 9 13 7 8 8 8 10 6 6 11 21 16 10 12 12
28 26 23 20 18 17 19 19 18 17 17 17 17 15 12 14 12 4 4 3 4 2 3 6 7 5 8 4 8 4 9 9 9 8 5 5 5 3 5 11 14 9 13 15 19
27 24 20 19 19 19 18 19 18 18 18 16 16 12 11 10 3 9 8 3 4 1 3 4 5 6 5 9 6 6 7 6 7 3 3 4 5 5 11 11 6 2 6 17 20
24 20 19 18 19 20 21 20 19 21 17 17 12 7 8 5 4 7 11 5 3 4 2 4 6 6 8 5 5 10 5 7 14 8 7 8 14 9 18 22 18 12 3 12 15
21 20 18 18 20 21 22 22 21 20 22 15 9 4 5 5 2 3 5 12 7 2 1 3 2 4 4 2 9 2 5 10 7 12 7 6 13 8 21 14 12 11 8 13 15
20 21 18 18 20 22 23 25 22 21 15 8 4 4 6 5 4 6 9 7 11 13 4 2 2 2 3 2 3 4 5 5 14 11 8 8 19 24 28 25 25 17 9 7 16
22 19 18 19 21 22 23 27 23 16 11 8 5 3 4 4 4 7 12 6 8 13 10 5 4 2 4 1 1 5 6 10 8 14 13 9 28 16 25 26 29 23 15 5 14
21 19 19 20 22 21 23 27 20 10 9 8 5 3 4 5 6 11 13 6 5 7 9 4 1 2 4 2 3 2 4 12 9 14 10 23 10 14 21 13 25 22 15 8 15
19 18 18 21 24 21 22 25 19 8 11 4 7 3 3 6 11 11 7 3 5 7 4 3 2 3 3 3 4 5 7 6 8 11 18 16 22 17 3 16 18 13 15 14 20
15 18 17 21 25 21 21 18 12 4 9 4 7 5 8 14 8 2 2 6 7 5 4 3 4 7 7 7 4 4 4 6 8 6 5 16 16 21 28 18 17 11 16 16 21
19 15 16 20 23 21 19 10 8 7 7 4 6 6 5 10 6 3 5 4 4 5 4 4 7 6 6 6 6 6 8 9 11 13 6 12 14 14 19 21 22 20 13 20 23
21 12 15 19 21 22 18 12 13 6 2 5 5 3 3 11 7 10 6 4 5 5 6 6 3 4 11 8 8 8 9 7 8 8 10 10 15 16 13 23 23 12 17 24 29
21 10 13 19 19 23 17 16 11 2 1 8 3 1 2 12 4 11 8 8 5 9 6 6 3 7 5 6 7 11 8 10 9 5 6 4 5 16 17 16 19 17 20 24 26
18 9 12 17 20 21 21 17 5 2 2 16 2 5 15 4 14 2 3 4 12 8 6 2 5 6 7 10 11 6 6 6 8 7 7 8 5 13 16 16 17 19 25 27 29
16 7 12 16 19 22 21 15 2 1 5 8 8 11 13 4 2 5 1 3 9 11 6 8 2 5 6 5 11 6 8 6 5 5 8 14 11 13 14 23 21 22 27 30 31
11 6 13 16 18 20 22 8 2 5 8 10 13 12 12 5 4 2 5 2 4 5 10 9 15 8 10 9 9 13 9 5 5 6 8 15 10 16 18 21 23 24 31 33 34
9 4 13 18 17 19 17 2 7 5 8 14 12 17 5 3 2 4 4 3 5 2 1 9 4 13 11 16 9 18 9 3 7 7 12 10 11 12 18 16 26 29 31 35 33
13 4 11 18 17 17 6 5 2 5 10 12 16 4 4 3 3 4 4 4 6 12 6 6 5 3 8 11 14 13 11 1 3 4 5 10 15 9 8 15 17 25 28 33 33
16 2 8 16 16 11 4 1 3 3 11 7 4 3 4 7 7 3 3 4 4 14 12 2 4 1 4 11 13 9 9 6 3 7 8 14 20 11 13 19 18 22 29 30 29
15 1 9 17 11 7 2 3 5 12 10 4 6 4 6 4 7 6 4 5 7 10 15 2 3 2 6 13 16 8 11 7 4 5 9 9 16 18 13 20 23 25 33 35 34
13 1 13 13 5 3 2 6 6 7 5 5 3 5 4 4 5 6 5 5 7 12 9 10 3 7 12 2 8 18 15 16 8 13 5 5 11 4 16 22 23 28 31 33 35
16 6 8 8 3 4 7 5 5 4 8 4 6 5 7 4 5 7 9 9 5 11 5 6 6 5 4 4 10 16 18 17 6 2 10 4 6 3 7 17 25 30 31 33 36
10 4 6 7 5 2 5 4 6 8 7 5 9 9 12 12 11 5 5 4 12 7 6 5 5 10 6 5 4 9 19 15 14 7 6 10 5 6 14 17 21 33 33 39 41
11 4 3 5 2 8 4 4 6 7 5 7 5 10 19 6 10 6 6 5 12 11 6 5 8 11 13 9 8 13 19 17 17 21 7 2 14 7 17 23 27 34 37 39 38
8 6 5 9 10 8 0 2 5 10 4 7 6 22 20 10 12 16 8 5 7 3 7 6 5 6 11 10 2 8 17 20 21 20 24 22 25 13 10 26 27 29 34 34 35
13 9 3 6 4 4 2 3 9 14 10 19 20 18 17 16 29 32 22 10 7 4 2 2 3 3 2 1 7 6 18 22 15 20 19 19 18 14 17 22 30 31 32 38 41
Wind_Direction
357 353 351 350 347 345 344 343 342 342 339 338 325 317 317 322 322 315 308 284 269 256 216 206 197 200 203 206 186 167 217 218 213 206 217 197 204 213 241 243 253 238 237 232 172
356 354 352 352 350 350 347 341 343 346 342 338 333 322 323 327 326 357 51 121 217 229 221 201 194 199 199 203 196 206 219 207 212 214 219 190 213 204 226 214 230 244 246 226 190
357 358 359 0 358 356 349 350 348 346 342 334 331 326 324 332 328 160 147 107 9 284 237 224 189 184 213 190 194 195 225 204 207 211 223 223 229 270 220 218 222 231 215 175 175
3 6 11 10 6 3 355 348 343 342 340 334 326 324 327 332 328 179 197 138 2 343 251 214 189 181 214 210 192 222 234 232 199 210 271 260 299 269 242 229 154 35 248 191 192
10 18 14 14 10 1 354 348 344 339 333 332 319 325 332 307 269 220 232 217 13 9 105 182 176 178 208 210 184 221 210 231 245 273 280 293 272 266 265 252 266 276 290 210 204
18 16 15 10 7 2 357 349 345 340 330 322 319 342 323 285 357 327 290 248 252 307 36 109 203 190 194 203 218 189 226 241 264 254 255 266 267 277 259 265 281 283 276 236 212
15 10 13 12 8 2 355 350 343 341 342 340 345 338 294 269 39 28 358 294 251 238 235 191 259 181 203 195 231 219 236 231 234 241 251 247 260 239 251 274 283 286 298 241 207
5 12 12 9 7 2 354 350 342 351 0 6 358 336 263 5 28 10 358 349 223 214 221 228 251 197 239 278 263 219 219 230 200 216 225 217 249 238 250 250 260 267 265 264 204
4 4 3 2 0 359 357 350 344 355 2 2 13 346 316 333 9 350 351 355 177 184 193 229 325 189 165 185 195 200 203 220 237 208 212 213 254 240 245 239 247 254 254 237 216
359 355 354 354 353 353 358 358 346 344 349 12 7 326 347 317 322 329 356 62 118 163 159 154 153 180 158 203 249 178 198 215 211 203 225 230 232 252 280 231 242 249 242 224 220
343 353 354 352 352 351 357 6 0 345 340 313 301 286 319 329 326 277 28 138 127 157 181 116 199 215 218 221 245 265 250 254 258 255 270 246 239 232 252 263 270 271 239 216 205
340 340 350 349 353 354 358 16 0 309 315 321 316 295 352 360 325 354 181 177 188 206 154 200 243 224 204 204 223 257 271 267 276 274 253 253 256 242 244 246 251 256 238 198 178
343 334 345 344 350 352 2 1 352 322 277 298 309 277 6 340 317 301 216 197 207 201 202 231 189 157 194 206 222 231 246 254 261 307 276 264 261 244 237 234 238 252 226 193 183
347 339 353 347 353 347 355 353 343 304 341 11 340 221 292 315 273 314 282 228 191 232 206 253 250 197 191 230 232 235 230 247 257 261 233 15 252 216 221 219 218 226 200 191 184
349 347 354 357 348 347 347 348 357 117 350 330 337 315 327 302 310 27 9 259 240 195 184 202 180 162 213 244 215 227 197 236 248 244 268 222 233 237 203 214 205 209 199 189 182
348 351 349 350 350 346 345 345 21 261 2 342 329 327 330 24 248 285 343 262 301 229 222 252 201 204 225 237 211 227 217 222 254 226 237 225 227 224 190 203 194 201 201 186 179
351 345 357 351 346 350 346 348 341 49 329 335 325 324 317 276 301 352 309 209 199 198 222 238 238 227 214 235 203 221 186 162 187 200 232 198 215 252 208 202 191 193 195 187 179
353 341 4 359 351 353 347 32 54 332 302 314 308 323 276 327 275 309 292 251 204 233 233 221 231 203 197 212 198 198 200 231 190 197 214 207 219 232 225 219 186 191 186 180 171
352 263 4 355 347 351 4 50 296 325 324 321 315 310 306 294 305 306 239 271 202 185 211 203 242 198 194 192 180 179 212 209 291 255 230 203 221 261 227 186 176 178 172 173 165
358 279 349 352 348 351 53 309 276 252 314 307 310 303 302 306 314 267 239 204 217 195 204 255 268 228 207 195 210 220 171 194 206 214 200 216 213 221 180 176 169 173 174 163 158
1 42 352 346 344 33 60 277 286 302 314 279 293 273 257 296 282 272 257 250 212 184 198 279 247 181 175 207 191 185 203 208 253 259 223 210 218 215 205 176 171 174 172 159 159
3 7 347 357 33 41 336 305 289 294 322 275 257 259 255 256 264 267 241 264 199 159 180 213 262 255 236 220 230 208 212 205 210 210 241 292 218 197 206 185 170 170 162 157 152
345 313 347 8 49 344 321 294 261 300 322 305 290 209 219 263 275 261 257 287 342 186 171 179 216 259 220 205 221 207 205 205 193 340 240 280 165 2 181 171 163 152 152 147 141
353 341 348 48 102 23 332 277 310 313 287 288 280 287 303 302 236 255 259 291 329 224 171 278 247 250 268 272 140 184 204 212 211 228 292 230 278 166 156 154 153 145 136 133 144
13 30 0 317 340 330 298 281 307 334 300 307 276 286 323 292 283 228 248 250 268 263 178 215 248 245 269 265 223 200 199 183 203 218 242 245 324 200 171 158 156 148 138 136 140
15 352 331 291 295 311 280 269 314 329 284 285 272 312 316 283 280 293 267 192 249 261 195 188 268 270 292 154 196 175 191 187 214 218 236 266 287 278 175 147 137 142 140 139 142
0 338 318 283 307 308 277 304 301 320 281 251 286 307 305 324 314 296 291 232 215 223 187 194 271 296 256 22 160 176 194 191 199 216 229 243 252 170 162 152 152 152 148 149 151